GSAT0218 (GALILEO 22)

Last updated on Sat Sep 12 2026 00:02:51 GMT+0000 (Coordinated Universal Time)

1 43058U 17079D 26253.80177923 -.00000002 00000+0 00000+0 0 9990 2 43058 55.0529 219.1470 0005064 284.1589 75.7313 1.70473941 54476
UTC large
Height (km)
Speed (km/s)
/
Latitude / Longitude
Inclination (degrees)
Orbital Period (minutes)
Azimuth
Elevation
Range (km)
Doppler Factor

Next 0 passes for location: London (51.5072 / 0.1276)

No passes found over London.
GSAT0218 (GALILEO 22)